Location: Honey Creek State Natural Area
(29.8555°N, 98.4942°W)
Time: 00:34:17
(UTC-05:00)

Hubble Space Telescope - Visible Passes

Search period start: 26 April 2018 00:00
Search period end: 06 May 2018 00:00
Orbit: 537 x 541 km, 28.5° (Epoch: 25 April)

Date Brightness Start Highest point End Pass type
(mag) Time Alt. Az. Time Alt. Az. Time Alt. Az.
26 Apr 1.1 21:52:31 10° WSW 21:55:59 50° SSW 21:55:59 50° SSW visible
27 Apr 0.7 21:42:10 10° WSW 21:46:16 63° S 21:46:36 60° SE visible
28 Apr 0.7 21:31:50 10° WSW 21:35:56 68° S 21:37:04 45° ESE visible
29 Apr 0.7 21:21:31 10° W 21:25:38 72° S 21:27:27 32° E visible
29 Apr 3.8 23:02:41 10° W 23:02:49 11° W 23:02:49 11° W visible
30 Apr 0.7 21:11:12 10° W 21:15:20 74° S 21:17:47 23° E visible
30 Apr 3.5 22:52:24 10° W 22:53:09 15° W 22:53:09 15° W visible
01 May 0.7 21:00:54 10° W 21:05:02 74° S 21:08:03 18° E visible
01 May 3.1 22:42:09 10° W 22:43:24 19° W 22:43:24 19° W visible
02 May 0.8 20:50:36 10° W 20:54:43 72° S 20:58:17 13° E visible
02 May 2.8 22:31:54 10° W 22:33:38 22° WSW 22:33:38 22° WSW visible
03 May 0.9 20:40:18 10° W 20:44:24 67° S 20:48:30 10° ESE visible
03 May 2.5 22:21:42 10° W 22:23:51 24° WSW 22:23:51 24° WSW visible
04 May 1.0 20:30:00 10° W 20:34:05 62° S 20:38:10 10° ESE visible
04 May 2.4 22:11:32 10° W 22:14:04 24° SW 22:14:04 24° SW visible
05 May 2.5 22:01:26 10° WSW 22:04:17 22° SSW 22:04:17 22° SSW visible
